Theta_e
331 331 331 331 330 329 329 330 329 328 327 327 324 323 324 325 326 326 327 324 320 318 319 320 322 322 324 327 327 327 328 327 327 329 329 328 327 328 329 328 328 323 315 312 311 308 307 307 308 309 309 309 308 309 308 307 306 305 306 306 306 306 306 306 306 306 306 306 305 306 305 306 306 307 308 308 308 308 308 308 308 308 308 308 308
332 332 332 331 330 329 329 329 329 328 328 327 325 324 324 326 328 328 327 325 320 318 320 321 322 322 323 326 327 326 327 326 326 328 329 328 329 330 330 330 329 324 317 314 313 311 309 307 307 309 309 307 308 308 307 306 306 305 305 306 306 306 306 306 306 306 306 306 305 305 305 306 306 306 307 308 308 308 308 308 309 308 308 308 308
333 332 332 331 330 330 329 329 329 328 328 328 326 325 325 326 329 329 328 325 322 322 324 324 323 321 323 325 326 326 325 325 326 327 328 329 330 331 331 330 329 326 322 318 316 313 312 310 307 306 307 306 306 307 307 306 305 305 305 306 306 306 306 306 306 306 305 306 305 306 306 306 306 306 306 307 308 308 308 308 308 308 309 308 309
332 333 332 330 329 330 330 329 329 329 329 329 328 327 326 327 329 329 329 326 325 326 327 327 326 323 323 325 326 325 324 325 326 328 328 329 329 330 331 331 329 328 325 322 321 318 315 313 309 307 307 306 305 305 305 305 305 305 305 306 307 305 306 306 306 306 305 306 306 305 306 306 306 307 307 307 307 308 308 308 308 308 308 309 309
330 331 331 330 329 330 329 330 329 329 329 329 329 329 328 328 328 329 329 327 326 327 327 327 327 326 324 324 325 326 325 326 327 327 327 328 328 329 330 330 328 327 326 326 325 325 322 319 315 312 311 309 307 305 305 305 305 305 304 308 310 306 305 305 306 306 306 306 306 305 306 306 306 306 307 307 307 307 308 308 308 308 308 308 309
330 331 330 330 329 329 329 329 329 329 329 329 329 329 329 329 329 329 329 327 327 327 327 327 327 326 326 325 325 325 325 326 327 327 327 327 327 328 330 330 328 327 327 327 327 327 326 324 320 317 315 312 311 310 310 310 310 309 307 309 311 309 307 306 305 306 307 306 305 305 306 306 306 307 307 307 307 307 308 308 308 308 308 308 309
330 330 329 329 329 328 329 328 328 329 329 329 329 329 329 330 329 329 329 327 326 326 326 326 326 326 326 326 326 326 326 326 326 326 326 327 327 327 329 330 329 328 328 328 327 327 327 327 325 321 320 318 317 317 317 316 316 315 314 313 312 312 312 310 308 306 305 306 306 305 305 306 306 307 307 307 307 308 308 308 308 308 308 308 309
330 330 329 328 328 328 328 327 328 329 328 328 328 328 329 330 330 329 329 328 327 326 326 326 325 325 325 326 326 325 326 326 326 326 326 325 326 327 328 330 330 328 328 328 328 328 327 327 327 326 325 324 323 324 323 322 320 318 318 318 316 315 314 313 312 310 307 306 306 306 305 306 306 306 307 307 307 307 308 308 308 308 308 308 308
328 328 328 328 327 328 328 326 328 328 326 327 328 329 329 329 330 329 329 329 328 327 327 326 325 325 325 325 325 325 325 325 326 326 326 325 325 326 327 329 329 329 328 328 328 328 327 327 327 327 326 327 327 326 327 327 325 323 322 321 320 318 315 312 314 317 315 310 307 306 306 306 306 306 307 307 307 307 308 308 308 309 308 309 309
328 328 328 329 328 328 327 327 327 326 326 327 328 329 328 328 329 329 329 329 328 328 328 327 327 326 325 325 325 325 324 325 325 326 326 326 325 325 325 327 328 329 328 328 328 328 328 328 327 327 327 327 327 327 327 328 328 327 326 325 322 320 317 314 313 317 320 317 312 308 306 306 306 306 307 307 307 307 307 308 308 309 309 309 309
326 327 327 328 328 327 327 327 326 326 326 326 326 328 327 327 328 329 329 329 328 329 328 328 328 325 322 323 325 325 325 325 325 326 326 326 326 326 326 326 327 327 328 328 328 329 328 328 328 328 328 327 328 328 328 327 328 328 328 327 325 323 319 317 316 315 318 320 318 313 310 308 308 308 308 308 308 308 308 308 308 308 309 309 309
324 325 326 327 327 327 327 327 326 326 326 325 324 326 326 326 326 328 329 329 328 328 328 328 326 322 320 322 325 326 326 327 326 327 326 326 326 326 327 326 326 326 326 327 328 328 328 328 328 328 328 328 328 328 328 328 328 328 328 327 327 326 324 322 320 318 317 318 320 319 316 314 313 311 311 310 310 309 309 308 308 308 309 309 309
324 324 325 326 327 327 327 327 326 326 326 325 325 326 327 326 326 328 329 328 327 327 328 327 325 323 321 322 325 325 326 326 326 326 326 326 327 326 327 327 327 327 326 327 327 328 328 328 328 328 328 328 328 328 328 328 328 328 328 327 327 328 327 326 325 324 321 319 319 320 319 317 316 314 312 312 311 311 310 309 308 308 308 309 309
324 324 324 325 326 326 326 326 326 326 326 326 327 328 328 326 326 327 328 328 328 327 327 327 326 325 324 323 324 324 325 325 325 325 325 326 326 326 327 326 327 327 326 327 327 328 328 328 329 329 328 328 328 328 328 328 328 329 329 328 327 327 328 328 328 327 326 323 321 320 320 319 317 316 315 314 314 314 313 311 310 308 308 308 308
323 323 323 324 324 324 325 324 325 325 326 326 327 328 327 326 326 326 327 327 327 327 327 327 327 327 327 325 324 325 325 325 325 325 325 325 325 326 327 327 326 326 326 326 326 327 327 328 329 329 329 328 328 327 327 328 329 329 329 329 328 327 327 328 328 328 329 327 324 322 321 321 320 319 318 318 319 318 316 314 312 310 309 308 308
320 321 321 322 322 323 323 323 323 323 324 325 326 326 325 325 325 325 326 327 327 327 327 327 327 327 327 326 326 326 326 326 325 325 325 324 324 326 327 326 326 325 325 326 326 326 327 327 328 328 328 328 327 327 326 327 328 328 329 329 329 328 328 328 327 328 329 329 328 325 323 321 321 322 323 323 323 323 321 318 316 313 310 308 308
315 317 318 319 319 318 319 319 320 320 321 322 323 324 324 324 324 324 325 325 326 326 327 327 327 327 327 326 326 326 326 326 326 325 325 324 324 324 324 324 325 325 325 325 325 325 325 325 326 325 326 327 326 326 326 326 327 327 327 328 328 329 329 328 327 328 328 328 328 328 326 323 321 323 325 325 325 326 325 324 321 316 311 307 307
315 316 317 317 315 315 315 316 318 318 319 320 322 323 323 323 323 323 324 325 325 326 326 327 327 327 327 327 326 326 325 325 325 325 326 326 325 325 325 324 324 324 323 323 323 324 324 325 324 323 324 325 325 326 326 326 326 326 326 326 327 327 328 328 328 328 328 327 327 327 327 326 324 323 325 326 326 326 326 326 325 323 318 312 308
316 316 317 317 316 317 318 319 320 320 321 322 322 323 322 320 319 318 320 323 324 324 325 326 326 326 326 326 326 325 325 325 325 325 325 326 326 326 326 325 324 323 323 323 323 323 323 323 322 321 323 325 325 325 325 325 326 326 326 326 326 326 326 327 327 328 328 328 327 327 328 328 328 326 326 327 327 327 327 326 326 326 324 320 315
316 316 317 318 318 319 319 321 322 322 322 322 322 322 320 319 317 313 315 322 324 324 325 325 325 325 325 325 326 326 325 325 325 324 324 325 324 323 323 322 323 324 324 325 324 323 322 322 323 323 324 324 324 324 324 324 325 325 326 326 326 326 326 326 327 327 328 328 328 328 327 328 328 328 327 327 328 328 328 327 327 326 326 325 322
316 316 316 318 318 318 317 319 320 321 321 321 321 320 316 315 313 310 314 322 324 324 325 325 325 326 325 325 324 325 325 324 324 324 324 323 320 319 319 318 320 322 322 324 324 323 322 322 323 323 323 322 322 323 323 322 323 325 326 326 326 326 326 326 326 327 328 328 329 328 327 327 326 327 327 327 328 328 328 328 327 328 327 326 326
313 314 316 318 317 316 316 315 316 318 319 318 316 313 309 307 307 310 317 322 324 324 325 325 325 325 325 325 325 325 325 324 323 323 323 322 318 315 316 317 318 319 320 321 322 323 322 322 322 322 322 322 322 323 322 321 322 324 324 324 324 325 324 325 325 326 327 327 328 327 326 326 326 326 326 326 327 328 328 328 327 328 328 327 327
309 312 315 317 317 315 313 310 309 311 312 310 308 306 304 303 305 311 317 320 320 320 321 323 324 324 324 324 324 324 323 322 322 322 322 322 319 316 315 316 317 318 318 319 319 319 319 320 321 321 322 321 321 321 321 321 321 321 323 323 323 322 322 323 324 325 326 327 327 327 327 327 327 327 326 326 326 327 327 326 326 327 327 327 328
307 310 313 316 316 311 307 305 305 306 306 306 305 305 305 304 305 308 310 311 310 310 311 314 318 321 322 323 323 323 322 321 321 321 320 319 318 317 315 315 316 317 318 319 319 319 319 319 320 321 321 320 320 320 320 320 320 321 322 323 323 322 322 322 323 325 326 326 326 327 326 326 327 327 327 326 326 326 326 326 327 327 327 327 327
306 309 312 314 313 308 305 305 306 305 306 306 306 306 306 305 305 305 306 305 305 305 305 306 309 312 315 317 318 318 317 316 314 313 311 310 309 312 314 315 315 316 317 317 317 318 319 319 320 321 321 320 320 320 320 320 320 321 322 324 324 325 324 323 323 325 326 326 326 326 325 325 326 326 326 327 327 326 325 326 326 326 326 326 326
306 308 311 311 309 306 305 306 306 306 306 306 306 306 305 306 306 306 306 305 305 305 305 305 305 306 306 307 308 308 308 307 306 305 305 305 304 306 309 312 314 315 315 315 315 316 316 317 318 320 322 321 320 320 320 320 321 321 322 323 323 323 323 323 323 323 324 323 323 323 323 323 323 323 323 325 326 326 325 325 326 325 325 325 326
306 307 308 308 306 305 305 305 305 306 306 305 305 305 305 305 305 305 305 305 305 305 305 305 305 305 305 304 304 304 303 303 303 303 303 303 304 304 305 309 312 314 314 314 315 315 314 313 314 317 320 321 321 320 320 319 319 320 320 321 321 322 321 321 321 322 321 321 320 319 319 320 319 318 318 318 319 320 320 321 322 323 324 324 325
305 306 306 306 305 305 305 305 305 305 305 305 305 304 304 304 304 304 304 304 304 304 304 304 304 304 304 303 303 303 303 303 303 303 303 303 303 303 303 307 310 312 312 312 312 312 312 311 312 313 314 317 320 321 320 318 317 318 318 318 319 319 319 319 319 319 319 319 318 318 318 318 318 317 317 316 316 316 316 315 316 316 318 320 322
305 305 305 305 305 305 305 305 306 306 305 305 305 305 304 304 304 304 304 304 304 304 304 303 304 304 304 304 304 304 305 305 305 305 305 304 304 303 303 304 307 311 312 310 308 309 309 309 309 309 308 309 312 316 318 319 319 319 318 318 318 318 318 318 317 317 316 316 315 315 315 315 316 316 315 315 314 313 312 312 312 311 312 313 315
306 306 305 305 305 305 305 305 305 305 305 305 305 305 305 305 305 305 306 305 305 305 305 305 305 305 306 306 306 307 307 307 307 307 306 306 305 304 304 303 304 307 310 309 307 306 305 305 305 306 305 304 305 307 309 312 314 315 316 315 315 314 315 314 313 313 312 311 311 311 311 310 310 310 310 310 310 309 310 310 310 310 310 310 310
306 306 306 306 306 306 306 306 306 306 306 306 306 306 306 305 305 305 306 306 306 306 306 306 306 306 306 306 306 307 307 307 307 307 307 307 306 306 306 305 304 304 305 307 306 304 304 304 303 303 303 302 302 301 302 303 304 305 306 306 306 307 307 307 306 306 307 307 307 307 307 307 307 308 308 308 309 309 310 310 311 311 311 311 310
307 307 306 307 307 307 307 307 307 307 307 307 307 306 306 306 306 306 306 306 305 306 306 306 306 306 306 306 306 306 306 306 306 306 306 307 307 307 307 306 306 306 305 305 305 304 304 304 304 304 304 303 302 302 301 301 300 301 301 301 302 302 302 303 303 303 304 305 306 306 307 307 308 308 308 309 309 310 310 310 310 311 311 311 312
308 308 308 308 308 308 309 309 309 309 309 309 308 308 308 307 307 306 306 306 306 306 306 306 306 306 306 306 306 306 306 307 307 307 307 307 307 307 307 307 306 306 306 306 305 304 304 304 304 304 304 305 305 304 304 303 302 302 302 301 301 301 301 301 302 302 303 304 305 306 307 307 307 308 308 308 309 309 309 309 310 310 310 311 311
312 313 312 312 312 313 313 313 314 314 313 312 311 311 311 310 310 309 308 307 307 306 306 306 306 306 306 306 306 306 307 307 308 308 308 308 308 308 308 308 308 308 307 307 306 305 304 304 304 304 305 305 306 307 307 307 306 306 305 304 304 303 303 302 302 302 302 303 304 305 306 306 307 307 307 308 308 308 308 309 309 309 309 310 310
316 316 316 315 315 316 316 317 318 317 317 316 316 315 315 315 315 314 313 312 310 310 309 308 307 307 308 308 307 307 307 308 308 309 310 311 311 312 312 312 312 312 310 309 307 306 305 305 305 305 305 306 307 307 308 308 308 307 307 306 306 306 305 304 304 303 302 302 302 303 304 304 305 306 306 306 307 307 308 308 308 309 309 309 310
318 318 318 318 318 318 318 318 317 317 317 317 318 318 317 317 317 317 317 316 315 315 314 313 312 310 310 310 309 308 307 308 309 310 311 313 313 314 314 313 313 313 312 310 309 307 306 305 305 305 305 306 306 307 307 307 307 308 308 308 307 307 306 305 304 304 304 303 302 302 302 302 303 303 304 304 305 306 306 307 308 308 309 309 309
319 319 319 319 319 319 318 317 316 315 315 317 318 317 317 318 319 318 318 318 318 318 317 317 316 315 315 314 312 310 309 308 309 311 312 313 314 314 314 313 313 313 312 311 310 309 307 306 305 305 305 305 306 306 307 308 308 308 308 308 307 306 306 305 304 303 303 303 302 302 302 302 301 302 302 302 302 303 303 305 306 307 308 309 309
317 318 319 319 319 319 317 316 315 315 316 317 318 316 316 318 318 318 318 318 318 319 318 318 318 317 317 316 316 314 312 311 311 311 312 313 314 314 314 313 313 313 312 312 312 311 310 309 307 306 306 306 307 307 307 308 308 309 308 307 307 306 306 305 304 304 303 303 303 302 301 301 301 301 301 301 301 301 301 301 302 303 305 306 307
314 314 316 317 318 318 317 314 315 316 316 316 316 316 316 317 318 318 319 319 319 319 318 318 318 318 318 317 317 317 316 315 313 313 313 313 314 314 314 313 313 313 312 312 312 312 312 311 310 309 308 308 308 307 307 307 307 307 308 308 307 307 306 305 304 303 302 302 302 301 301 300 300 300 300 300 300 300 301 300 300 300 301 301 302
315 314 315 315 316 317 317 316 316 316 317 316 316 316 317 318 319 318 318 318 319 319 319 318 318 318 318 317 317 317 317 316 316 315 314 313 314 314 314 313 314 313 312 311 311 311 311 311 311 310 310 309 308 308 308 308 308 308 308 307 307 307 307 305 304 303 302 300 300 300 300 300 300 299 299 299 299 299 300 300 300 300 300 300 300
316 316 315 315 315 315 315 316 317 317 317 317 318 318 318 319 319 318 317 317 317 318 318 318 318 318 318 318 317 317 317 317 316 315 314 313 313 313 312 312 312 312 311 311 311 311 310 310 310 310 310 309 309 308 308 308 308 307 307 306 305 305 305 306 305 303 302 301 300 300 299 299 299 299 299 299 299 299 299 299 299 299 300 300 300
317 317 317 316 316 316 316 316 316 318 318 318 318 318 318 318 318 317 317 317 317 317 317 317 317 317 318 318 318 317 317 317 316 315 314 313 313 313 312 311 311 310 310 310 310 309 309 308 308 309 309 309 309 308 307 307 306 306 305 305 304 303 303 304 305 304 302 301 301 302 301 299 298 299 299 298 299 299 299 299 299 299 299 299 300
318 318 317 317 317 317 317 316 317 318 318 318 319 319 319 319 318 318 317 317 317 317 317 317 317 317 318 318 317 317 317 317 316 315 315 314 313 313 313 311 310 310 310 310 309 308 308 308 308 308 308 308 307 306 306 306 306 305 305 304 303 302 301 301 302 303 301 300 300 301 301 300 298 299 299 298 298 298 299 299 299 299 299 299 299
318 317 315 315 316 316 317 317 318 318 318 319 319 318 318 317 317 318 318 318 319 318 318 318 318 318 318 318 318 317 317 317 316 315 314 314 313 311 310 310 310 310 310 309 308 308 307 307 307 307 307 306 306 305 305 305 305 304 304 303 302 301 300 299 299 300 300 299 298 299 301 300 298 298 299 298 298 298 298 298 298 298 298 299 299
315 314 314 315 315 316 317 317 317 317 318 318 317 316 314 313 313 313 314 315 316 317 318 318 318 319 319 319 318 318 317 317 316 316 315 313 312 310 310 310 310 310 309 308 307 307 306 306 306 306 305 304 304 304 304 304 303 302 302 301 300 298 297 297 297 298 298 297 297 298 299 299 298 298 298 298 298 298 298 298 298 298 298 298 298
314 314 315 315 315 316 316 315 315 315 315 315 314 313 313 312 311 310 308 308 309 310 311 312 313 315 316 316 317 317 317 317 317 317 315 313 311 310 310 310 310 309 308 307 306 306 306 305 305 305 304 303 303 302 302 302 301 300 299 299 297 296 295 296 296 296 296 296 296 296 297 298 297 297 297 297 298 297 297 298 297 298 298 298 298
312 313 313 313 313 313 313 312 311 311 311 311 311 311 312 311 310 307 305 304 304 304 305 306 307 308 309 312 315 316 317 317 317 316 314 312 311 310 310 310 309 308 307 306 305 305 305 305 305 304 303 302 302 301 300 300 298 297 297 295 295 294 294 295 295 295 295 295 295 295 295 296 296 296 296 297 297 297 297 297 297 297 297 297 297
309 309 310 310 310 310 310 309 309 309 309 309 309 309 310 310 309 307 305 304 304 304 304 305 305 306 307 310 314 316 317 316 315 313 312 311 310 310 310 309 309 307 306 305 305 305 305 304 304 303 303 302 301 300 299 298 297 296 294 294 294 294 294 294 294 295 295 295 295 295 294 295 295 295 296 296 296 297 297 297 296 296 296 297 297
306 306 306 305 305 305 305 306 306 307 307 307 308 308 308 309 309 308 307 306 305 304 304 304 305 307 310 312 314 315 315 314 313 311 310 310 309 309 309 308 307 306 306 305 305 304 304 304 303 303 302 301 300 299 297 296 295 294 293 293 294 293 293 294 294 294 295 295 295 294 294 294 294 294 294 295 296 296 296 296 296 296 296 297 297
303 303 302 302 301 301 301 301 302 302 303 304 305 306 307 309 310 310 309 309 307 306 305 304 305 307 310 311 312 313 313 312 310 309 308 308 308 309 308 307 306 305 304 304 304 304 303 303 302 302 300 299 297 296 295 294 294 293 293 293 294 293 293 293 293 293 294 294 294 294 293 293 293 293 293 294 295 295 295 295 295 295 295 296 296
303 303 302 302 302 302 301 301 301 301 301 301 302 303 305 308 309 309 310 310 310 309 308 307 306 306 307 309 311 311 310 309 308 307 308 308 308 308 307 305 305 304 304 304 303 303 302 301 300 299 297 296 295 294 293 293 293 293 293 293 293 293 293 293 292 292 292 293 293 293 292 292 292 292 292 292 293 294 295 294 294 294 294 294 295
Wind_Speed
9 9 9 8 8 7 7 6 6 6 6 6 5 5 6 7 6 6 6 6 6 8 10 11 11 13 14 13 11 10 9 8 6 5 5 5 3 2 1 1 1 0 1 1 2 2 2 2 4 5 6 6 6 5 5 4 3 2 2 2 2 2 1 1 2 2 3 3 4 4 5 5 6 6 7 8 8 9 10 10 10 11 12 12 12
9 10 9 8 7 7 6 6 6 6 5 5 5 5 6 6 6 6 7 6 7 8 10 11 11 11 12 12 12 11 10 9 7 6 6 5 3 1 1 2 1 1 1 2 2 3 3 3 1 4 5 6 6 6 5 5 4 3 2 2 3 3 3 2 2 2 1 1 2 2 3 4 5 5 6 6 7 8 8 9 9 10 10 11 11
8 9 9 7 6 6 6 6 6 5 5 5 4 4 6 6 6 7 7 7 7 7 8 9 10 11 11 11 11 11 11 10 7 6 6 5 3 1 1 1 1 1 1 2 3 4 4 4 3 1 3 4 6 7 6 6 5 5 4 2 2 3 3 3 3 3 2 2 1 1 1 2 3 4 5 5 6 6 7 7 8 8 9 9 10
7 8 7 6 6 5 5 6 7 6 6 6 5 5 7 8 8 8 8 8 8 8 7 7 8 9 9 10 9 9 10 9 6 5 6 5 4 3 2 1 1 1 1 2 4 4 4 5 5 3 1 2 4 5 5 5 5 5 5 4 3 3 3 4 5 5 4 4 3 2 1 1 1 2 3 4 5 5 6 6 7 7 7 8 8
7 7 6 6 6 6 6 7 7 7 7 6 6 7 8 9 9 9 9 9 9 8 7 6 7 8 8 9 9 8 8 8 6 5 6 6 4 3 2 1 1 2 3 3 4 4 4 4 5 4 3 2 2 2 2 3 4 3 4 4 3 3 4 4 5 6 6 5 4 4 3 2 1 1 2 3 4 4 5 5 6 6 6 7 7
7 7 6 6 7 7 7 7 6 6 7 7 7 8 8 9 10 9 9 10 9 9 8 7 7 8 7 7 8 8 7 7 7 6 6 6 5 3 3 3 3 3 3 4 4 4 4 4 4 4 4 3 3 3 2 2 2 2 2 2 2 2 3 4 5 6 7 7 6 5 4 3 2 1 1 2 3 3 4 4 5 5 5 6 6
7 7 6 6 7 7 6 6 7 8 9 9 9 9 9 10 10 10 10 10 10 9 9 8 8 7 7 7 7 7 7 7 7 8 8 7 6 5 5 5 4 4 3 3 3 3 3 3 3 4 4 4 4 3 3 3 3 3 3 3 2 3 4 3 3 5 5 6 7 6 5 4 3 2 1 1 2 2 2 3 3 4 4 4 5
7 6 6 6 7 7 6 7 9 9 10 11 10 10 10 11 11 10 11 11 10 10 9 9 8 8 8 8 8 8 8 7 7 8 9 9 9 7 6 6 6 5 4 2 1 1 2 2 2 3 4 4 4 3 2 1 2 2 2 3 3 3 4 5 4 3 4 5 6 7 6 5 4 3 2 1 1 1 1 1 2 2 3 3 3
6 5 6 7 7 7 7 8 10 10 12 13 12 11 10 11 11 11 12 12 12 11 11 10 10 10 10 10 10 10 9 8 8 8 8 8 10 10 9 8 7 7 6 5 4 2 0 0 1 2 2 3 3 2 1 1 1 1 2 2 2 1 2 3 4 4 4 4 5 6 6 5 5 3 2 1 1 1 1 1 1 1 1 2 2
6 6 7 8 7 8 9 10 11 12 13 13 12 11 9 9 11 11 12 12 12 11 10 10 10 10 11 11 11 10 9 9 8 8 8 7 9 10 10 9 9 9 9 8 7 6 4 3 2 1 1 1 1 2 2 1 2 2 2 2 2 1 1 1 2 3 5 5 4 4 5 5 4 3 2 1 1 1 1 2 2 2 2 2 2
5 6 7 8 7 8 9 10 11 12 12 10 11 10 9 10 11 11 11 13 12 11 10 9 8 9 9 8 8 8 8 8 8 8 8 8 8 9 10 10 11 11 11 11 10 9 7 5 4 2 1 1 0 1 3 3 2 3 4 5 5 2 1 1 2 2 3 4 4 4 3 3 3 2 2 2 2 2 2 3 3 3 3 2 2
3 4 5 5 6 7 8 9 10 10 10 9 10 11 9 10 11 11 12 14 12 10 9 8 7 6 6 7 7 6 6 7 8 8 8 9 9 9 9 10 11 11 12 13 13 11 10 8 6 4 3 2 1 2 3 4 4 4 4 5 6 5 2 2 3 3 3 4 4 4 3 2 1 1 2 2 2 2 2 3 4 4 4 4 3
3 3 3 3 3 5 6 8 9 10 9 9 10 10 9 9 11 12 13 13 10 8 9 7 6 5 5 7 9 7 7 7 8 8 9 10 10 11 11 10 10 10 12 14 15 14 12 11 9 7 6 5 3 3 3 3 4 5 5 5 5 5 6 6 5 4 4 4 4 4 4 3 3 1 1 0 1 1 1 3 3 4 4 4 4
2 2 2 2 2 3 4 5 7 9 8 8 8 8 8 8 9 11 12 12 10 8 9 8 7 6 4 6 9 9 10 10 9 10 10 11 12 13 13 13 12 11 11 13 15 16 15 14 12 10 9 7 6 5 4 4 4 4 5 6 5 4 6 8 9 6 5 4 4 4 4 5 4 2 1 1 1 1 0 1 2 3 4 4 5
2 1 2 2 2 2 3 3 4 5 6 6 7 7 7 8 8 9 11 11 10 9 9 10 9 8 5 6 8 9 10 11 11 11 11 12 12 12 14 15 14 14 13 12 14 15 15 15 15 13 11 9 7 6 5 5 6 6 6 6 5 5 5 8 10 10 9 6 4 4 4 3 2 2 2 2 2 1 1 0 1 2 3 4 5
2 1 1 2 3 3 3 3 2 3 3 4 4 4 5 6 7 8 9 10 10 9 10 11 11 9 6 6 7 7 8 9 9 9 10 11 11 11 13 14 13 13 14 13 13 14 13 15 15 13 10 9 8 7 7 7 7 8 7 7 8 8 8 9 10 11 11 10 7 4 2 1 1 1 2 2 2 2 1 1 0 1 2 4 5
1 1 2 3 3 4 4 4 3 3 2 1 1 1 1 3 5 7 8 9 10 11 10 11 13 12 9 7 6 6 6 6 6 5 6 7 7 8 10 12 11 10 12 12 12 11 11 13 13 10 7 8 8 8 8 8 8 9 9 9 10 11 12 12 12 12 11 11 11 10 7 5 4 4 3 3 2 1 1 0 0 1 2 3 4
3 2 1 1 1 1 2 2 3 2 1 1 2 2 1 1 2 3 5 7 8 9 9 10 12 11 10 10 8 6 5 5 4 3 3 3 2 3 4 6 7 7 8 8 8 9 11 13 12 10 9 10 11 10 10 10 10 10 10 10 11 13 13 13 13 13 13 13 13 14 13 11 9 7 6 5 4 3 2 2 1 1 2 3 4
4 3 1 2 3 3 3 3 3 3 4 4 4 5 4 4 3 1 1 3 4 6 7 9 10 10 9 10 10 8 6 5 4 3 3 3 4 3 3 4 5 5 6 6 6 7 9 12 12 9 9 11 11 11 10 10 11 11 12 12 13 14 14 14 14 15 16 16 16 16 16 14 14 13 10 9 7 6 5 5 4 3 3 3 4
3 3 2 2 3 3 4 4 4 4 5 5 5 4 3 2 2 3 3 2 1 2 4 6 7 8 8 9 8 7 5 4 3 3 2 4 7 5 3 2 2 4 5 5 5 5 4 5 7 6 6 7 7 8 8 8 9 10 12 13 14 14 15 15 15 16 17 18 18 18 17 15 17 17 15 13 13 11 9 8 7 6 6 5 5
3 3 3 2 2 3 4 4 3 3 3 3 2 2 2 2 2 2 4 5 4 3 2 2 2 4 5 7 8 6 6 5 3 3 3 6 10 8 5 3 1 1 1 2 2 4 3 2 4 5 5 4 4 5 5 5 7 8 9 11 13 14 15 15 16 16 17 17 16 17 17 16 17 18 16 16 16 13 12 12 10 10 10 8 7
4 4 3 3 3 4 5 4 2 1 1 1 2 2 3 2 1 3 5 6 7 7 6 5 4 2 1 2 5 4 5 5 3 2 2 5 10 12 8 5 5 6 4 2 1 1 2 3 4 5 6 6 6 7 7 8 8 8 7 9 11 12 13 14 15 16 17 17 14 14 16 17 17 17 17 17 16 13 14 13 10 11 12 11 10
4 3 3 3 4 5 6 4 3 3 3 3 3 2 1 2 4 6 6 7 7 8 7 8 7 5 6 5 3 2 3 5 5 4 3 5 8 10 9 8 9 9 9 7 5 3 2 3 4 4 5 6 7 9 10 10 9 8 8 9 10 11 11 11 11 13 15 15 13 12 13 15 16 17 16 17 16 15 16 14 12 13 13 13 13
4 3 3 3 5 6 6 6 7 7 7 7 7 7 7 8 8 8 7 7 7 8 7 8 7 6 7 7 5 5 6 6 5 3 3 3 4 6 7 6 9 11 11 10 8 6 4 2 1 1 2 3 4 5 7 8 8 7 8 9 9 9 9 8 9 11 11 11 11 11 12 14 14 14 14 15 16 16 16 16 16 16 15 15 15
3 2 2 3 4 5 6 7 8 8 8 7 7 8 8 9 9 9 9 9 10 9 9 9 9 7 7 6 5 4 4 3 3 3 3 2 2 5 7 7 8 10 9 8 9 9 8 6 5 3 1 1 1 1 3 4 5 5 5 6 7 7 6 6 7 9 8 6 8 8 8 11 11 11 12 14 15 15 15 16 15 15 14 14 15
3 3 3 3 3 4 5 5 6 6 6 6 6 7 7 8 8 8 8 9 10 10 10 10 9 9 9 8 7 6 5 5 5 5 6 5 5 5 7 9 8 7 7 7 7 7 8 8 6 4 2 2 2 1 1 1 1 2 3 4 5 6 5 4 5 6 5 5 6 7 6 7 7 6 7 9 11 12 12 13 13 13 15 14 14
3 4 4 4 4 4 3 2 4 4 5 5 6 7 8 8 8 8 8 9 9 9 9 9 10 10 10 9 9 8 8 8 8 7 7 7 6 5 6 9 10 9 8 7 7 7 8 8 6 4 3 2 2 1 1 1 1 2 3 4 5 6 6 6 6 6 7 7 7 8 8 7 7 7 8 10 11 11 12 13 13 14 15 15 15
2 3 4 5 5 5 3 2 2 3 4 6 7 9 10 10 11 10 10 11 11 10 11 11 11 11 11 10 9 9 9 10 10 10 10 9 8 6 4 6 10 11 10 9 7 7 7 5 4 4 3 2 1 1 1 2 3 3 4 5 6 7 8 8 8 8 9 10 11 11 11 11 11 12 13 14 15 15 15 16 16 17 17 17 17
2 2 3 4 5 5 4 3 2 3 3 5 6 8 10 11 12 12 12 13 13 13 13 12 13 12 12 12 11 11 12 12 12 12 12 12 11 9 7 5 6 9 10 9 7 6 5 3 2 2 2 2 1 2 3 5 6 7 8 8 8 9 10 11 12 12 12 13 13 14 15 15 15 16 17 18 18 18 18 18 19 19 19 20 19
2 2 2 3 3 3 4 3 3 2 2 3 4 5 7 9 10 11 11 12 12 12 13 12 13 13 12 11 11 11 12 11 11 12 12 12 12 11 10 9 6 6 8 8 6 4 3 2 1 1 1 2 2 3 5 6 8 9 10 11 12 12 13 14 15 15 15 14 13 14 15 15 15 16 16 17 17 17 17 16 17 17 18 19 19
4 3 3 2 2 2 2 3 2 2 2 2 2 3 4 5 6 7 9 10 9 10 10 10 10 10 10 9 9 9 9 9 9 9 10 10 10 9 10 10 9 8 7 7 6 4 3 2 3 2 2 3 4 5 6 7 8 9 10 12 12 13 14 15 15 15 14 13 13 12 12 12 12 13 13 14 14 14 14 14 14 15 15 15 15
5 5 4 3 3 2 2 2 2 1 1 1 1 1 2 2 2 3 4 6 6 6 7 7 7 7 7 7 6 6 7 7 7 7 7 7 7 7 7 7 7 8 7 6 5 5 3 2 3 3 4 4 4 5 5 6 7 8 9 10 11 12 13 14 14 14 13 13 13 12 12 12 12 12 12 13 13 14 14 14 14 14 14 14 13
7 6 5 4 4 3 3 2 2 2 2 2 2 2 1 1 0 0 0 1 2 3 3 3 4 4 4 4 4 4 5 5 5 5 5 5 5 5 5 5 5 5 5 4 4 4 3 2 2 3 4 4 5 5 5 5 6 7 8 9 10 11 12 13 14 14 15 15 14 14 14 14 14 14 14 14 14 15 15 16 16 16 16 15 15
9 8 7 6 5 5 4 3 3 3 4 4 3 3 2 2 1 1 2 3 2 2 2 1 1 2 2 2 1 2 3 3 3 4 4 4 4 5 5 5 5 5 5 4 3 3 2 2 3 4 5 5 6 7 6 7 7 8 9 10 11 11 12 13 14 15 15 16 16 17 17 17 17 17 17 17 17 17 17 17 18 18 17 17 17
12 10 9 8 7 6 5 5 4 3 4 6 6 5 3 2 1 1 2 2 3 3 3 3 3 2 2 2 1 1 2 2 2 3 3 4 4 5 5 5 6 6 6 6 5 4 4 4 4 6 7 7 8 9 10 11 11 12 12 13 13 13 14 14 15 15 16 16 17 18 19 19 20 20 21 21 20 20 19 19 19 19 19 19 19
15 12 11 10 9 9 8 7 6 6 6 7 7 7 5 3 2 2 2 2 2 3 3 4 4 4 4 3 2 1 0 1 1 2 2 3 4 5 6 7 7 7 8 8 8 7 7 7 7 8 9 9 10 11 12 12 13 14 15 15 15 15 15 15 16 17 17 17 18 19 20 21 21 22 23 23 23 23 23 22 21 20 20 20 20
16 14 14 13 13 12 12 11 11 10 10 9 10 12 10 6 5 4 4 3 3 3 3 4 4 4 5 4 4 2 2 1 1 1 2 2 3 5 6 7 8 8 9 9 10 10 10 10 10 10 11 11 12 13 14 15 15 15 16 16 17 17 17 16 16 17 18 18 19 19 20 21 22 23 24 25 25 26 26 25 25 24 23 23 22
17 15 15 15 16 16 15 14 15 15 15 14 15 17 16 12 9 8 8 7 7 7 7 6 6 6 5 5 5 4 3 3 3 4 4 3 3 5 6 8 8 9 9 10 11 12 12 12 13 13 13 14 14 15 16 17 18 18 18 18 17 17 18 18 18 18 19 19 19 20 20 21 21 23 23 25 26 26 27 27 27 27 27 27 27
21 21 20 18 16 17 17 17 18 19 18 18 18 18 17 16 13 12 12 11 10 11 12 11 11 10 8 8 7 6 5 5 5 6 6 6 6 6 7 8 9 10 11 11 12 12 13 14 15 15 16 16 17 17 18 19 20 21 21 21 21 20 19 19 20 20 21 21 21 21 22 22 22 22 23 24 25 26 26 27 27 28 29 29 30
21 23 23 21 19 19 19 20 22 21 19 19 18 16 15 16 15 14 14 14 14 14 14 15 15 14 13 11 10 10 9 8 8 8 8 8 9 9 8 9 10 11 11 11 12 13 15 16 17 17 18 18 19 19 20 21 22 22 23 24 24 24 24 23 22 22 23 22 22 21 21 22 22 22 23 23 24 25 25 26 26 27 28 29 30
20 21 22 22 23 24 22 21 21 21 20 20 18 15 14 15 16 17 18 18 17 17 17 17 17 16 16 15 14 14 13 13 13 12 11 11 11 11 11 10 11 11 9 8 11 14 16 18 19 19 18 19 20 21 22 24 25 26 26 26 26 26 27 26 25 25 25 25 25 22 22 23 24 23 23 24 24 25 25 25 25 26 27 28 28
19 19 19 20 22 23 22 22 21 22 21 19 15 14 15 16 18 20 21 19 18 18 18 18 17 16 16 16 16 16 17 17 18 16 15 14 14 13 14 13 12 10 7 8 11 14 16 18 18 19 19 20 21 22 23 24 26 27 27 28 28 28 29 29 27 26 27 29 30 27 25 25 26 25 24 24 25 25 25 25 25 26 26 26 27
18 17 17 19 20 20 20 20 19 19 16 14 12 12 14 16 17 18 18 18 18 18 17 17 17 17 17 17 18 19 19 20 21 20 19 18 17 16 16 16 14 12 9 9 12 14 15 17 18 19 20 21 22 23 24 25 26 26 27 28 29 30 30 31 31 28 28 31 34 32 29 28 29 28 25 24 24 24 24 24 24 25 26 26 26
17 16 14 14 13 13 13 13 13 12 10 9 9 10 10 11 12 12 13 14 15 15 15 15 15 17 18 19 20 21 21 21 22 23 22 20 19 18 17 16 15 13 11 10 13 14 15 17 18 20 21 21 22 24 25 26 27 27 28 28 30 31 31 32 33 31 30 32 35 35 32 30 31 31 29 27 26 25 24 23 23 24 25 26 26
13 12 10 9 8 9 9 8 7 7 7 7 8 7 7 7 8 8 9 10 11 12 12 12 13 14 15 16 17 19 20 21 21 22 23 21 20 19 18 17 16 14 12 13 14 15 17 18 20 21 22 23 24 25 26 28 29 30 30 31 31 33 34 34 34 33 32 33 35 36 33 30 31 34 32 29 29 28 26 24 22 22 23 24 24
9 8 7 7 7 7 7 6 6 6 7 8 8 8 9 9 9 9 9 10 11 11 12 12 13 13 13 14 15 15 17 18 18 19 21 21 21 20 19 18 16 15 14 15 16 17 19 22 22 23 24 25 26 27 28 29 31 32 34 34 34 34 35 35 34 34 33 33 34 35 34 30 30 33 33 30 30 29 27 25 23 21 22 22 22
6 6 6 6 7 7 8 9 9 10 10 11 10 10 10 10 10 10 10 11 11 12 12 13 13 14 14 14 15 15 14 14 14 17 20 21 21 20 19 18 16 15 15 16 18 19 21 23 24 24 26 27 28 29 30 32 33 34 35 35 35 35 36 35 34 33 32 31 31 34 36 33 31 32 32 30 30 30 29 27 24 22 21 20 21
7 7 8 8 9 11 11 12 12 12 12 11 11 10 10 9 9 10 10 11 11 11 11 11 11 12 13 14 15 14 14 12 12 15 18 20 20 19 18 17 16 15 16 18 20 22 23 23 24 26 28 29 30 31 32 34 35 35 35 35 34 34 36 36 36 34 32 31 31 32 35 35 32 31 32 31 31 31 29 27 25 22 20 19 19
8 9 9 10 10 10 11 11 12 12 11 11 11 10 10 9 9 9 10 11 12 12 11 10 10 10 11 12 12 12 11 9 10 14 18 19 19 18 17 16 16 16 17 20 22 23 24 24 25 27 29 30 31 32 33 34 34 34 34 34 34 34 35 36 37 36 35 33 31 30 32 34 32 32 34 34 33 33 31 28 24 20 18 18 17
7 7 7 6 6 7 7 9 10 11 11 11 11 11 11 10 9 10 11 12 13 13 13 12 9 8 8 8 7 7 6 6 9 14 17 18 17 17 16 16 16 17 19 21 23 24 24 25 27 29 30 30 31 32 32 32 32 32 33 33 32 32 33 34 36 37 36 34 30 28 31 34 33 33 35 36 36 34 31 26 22 19 19 19 19
7 6 5 5 6 6 7 9 10 11 13 13 14 14 13 12 11 11 11 12 13 13 13 12 11 9 7 6 5 5 5 7 11 14 16 16 16 16 16 16 17 19 20 22 24 25 26 27 29 29 29 29 30 30 30 30 30 30 31 32 31 31 32 33 33 33 34 33 30 29 31 34 34 33 32 33 35 35 31 28 27 27 26 25 24
Wind_Direction
261 266 269 270 272 268 254 240 238 234 229 235 231 228 227 228 240 239 231 223 209 206 206 206 205 205 207 207 207 211 217 215 202 196 207 217 221 189 150 330 295 260 31 42 29 27 15 325 262 245 238 239 250 262 273 282 282 239 216 226 236 221 188 144 118 95 76 68 64 64 67 70 68 68 68 66 65 64 64 61 60 61 62 63 63
252 258 264 265 269 266 257 246 243 240 237 241 234 224 224 229 240 235 228 221 208 202 204 208 211 210 208 208 210 212 217 221 216 207 210 219 234 267 338 327 302 251 44 61 60 53 43 20 299 242 239 242 247 258 270 282 296 286 251 215 225 233 222 201 172 157 134 104 75 70 69 69 70 69 67 64 64 64 64 63 60 58 58 59 59
250 255 262 264 268 270 267 260 253 251 250 250 239 226 226 232 242 235 226 220 207 196 199 206 216 220 213 209 211 214 221 227 227 212 209 217 217 214 252 349 338 259 44 57 59 55 53 45 28 251 238 253 254 259 269 278 288 286 277 236 200 213 217 212 205 198 190 184 174 137 92 75 71 69 68 65 61 61 63 63 62 60 58 56 55
249 251 257 261 258 261 269 262 254 250 250 251 242 234 229 230 236 234 225 219 205 193 195 203 212 216 214 212 209 209 214 218 216 201 199 199 192 195 209 57 43 174 105 75 67 59 55 54 46 49 43 300 277 269 272 279 284 280 277 257 219 205 210 213 213 214 211 204 198 192 177 128 87 73 70 63 58 55 57 61 61 61 61 58 55
244 243 244 250 247 244 251 251 246 240 240 245 240 234 230 229 231 228 222 216 207 200 200 203 207 208 208 212 210 205 203 202 202 200 194 189 184 199 212 177 119 136 121 98 83 75 67 67 63 58 49 19 356 330 303 294 294 285 274 261 237 216 214 218 220 221 221 219 213 204 196 187 157 95 79 64 59 50 49 55 58 60 61 62 59
239 238 235 240 242 243 249 249 247 238 235 239 239 235 229 230 230 225 218 216 213 210 208 208 211 211 211 212 212 212 212 213 219 219 210 202 201 207 213 199 158 136 118 95 79 76 77 83 84 78 67 55 55 44 25 7 349 334 306 284 269 259 234 219 220 227 228 227 226 221 210 198 197 180 105 81 70 56 47 47 52 57 61 63 65
238 235 238 240 240 246 255 253 245 240 238 236 238 240 233 230 231 224 218 219 219 217 217 219 223 226 226 225 226 230 234 237 240 237 233 231 226 220 220 211 184 161 132 101 69 54 62 85 100 98 91 81 75 63 47 39 23 11 2 357 341 321 303 266 231 228 232 235 237 236 228 214 205 203 180 123 91 72 61 50 51 57 59 61 65
247 238 241 244 242 242 244 243 238 238 239 233 234 238 233 229 227 223 220 221 224 223 226 231 236 242 243 245 250 254 256 255 253 249 247 246 241 235 233 226 205 189 182 171 127 40 34 74 111 112 112 109 102 92 85 77 61 62 36 18 11 347 324 309 284 248 237 242 244 246 242 235 225 211 196 169 129 99 89 77 69 70 64 63 66
253 245 243 242 241 239 234 236 235 235 238 236 240 244 236 229 228 225 222 221 224 227 230 237 244 252 257 261 265 270 271 267 263 259 255 248 243 242 244 241 221 204 202 202 200 198 235 219 151 129 132 137 130 113 118 202 214 103 77 41 18 348 312 308 300 273 259 255 251 250 250 248 246 234 214 198 184 167 153 148 132 118 99 87 81
261 250 248 246 246 242 233 232 234 238 243 245 252 257 250 242 234 227 226 224 224 227 232 242 252 259 262 263 267 272 273 270 265 261 261 253 244 240 241 242 233 222 217 215 215 217 220 224 226 231 193 168 145 84 50 348 260 277 308 337 353 339 215 286 309 281 266 266 265 253 248 252 258 254 245 246 239 224 213 201 189 176 159 136 125
273 253 248 247 243 240 232 231 236 243 247 251 258 260 258 255 243 233 233 230 225 227 235 244 256 264 260 250 251 260 261 263 260 255 258 258 252 245 241 241 239 234 229 226 225 224 223 223 227 237 243 241 335 25 20 12 341 297 291 295 318 329 152 103 7 323 281 270 271 262 257 265 266 266 261 267 262 239 223 218 210 197 186 180 170
300 279 263 252 242 239 235 233 236 241 241 242 250 251 248 255 256 250 247 241 233 228 231 240 255 263 252 228 220 229 240 250 254 256 262 264 266 260 250 243 241 239 237 233 229 226 225 223 224 229 237 250 289 337 350 356 354 346 315 288 301 311 312 6 19 4 327 300 288 286 302 324 314 289 267 260 260 244 227 221 217 213 205 197 193
335 320 299 287 256 240 239 235 233 235 231 228 236 240 237 243 249 250 250 251 247 234 226 229 243 253 242 223 218 221 231 242 250 257 263 265 268 264 256 248 242 239 240 238 232 228 224 221 222 226 229 235 247 278 300 321 330 335 326 308 305 302 294 302 322 359 2 339 328 326 338 350 357 360 308 233 215 226 233 227 220 221 219 211 209
348 341 318 300 257 235 234 232 232 235 231 224 224 229 231 235 239 242 249 254 255 243 229 223 232 241 238 226 226 230 236 244 250 254 257 259 263 264 259 248 239 239 243 242 238 233 230 225 222 222 226 231 236 251 262 271 286 301 312 312 315 305 282 279 286 306 337 349 352 353 2 8 18 36 53 82 85 73 278 242 228 224 223 222 221
335 333 309 277 259 250 235 230 230 230 227 221 219 221 228 238 243 243 246 252 253 246 231 224 232 240 235 225 229 234 240 245 248 251 254 256 258 261 258 250 248 251 248 245 245 241 238 234 228 224 227 233 235 240 246 246 254 260 271 285 290 292 283 272 272 280 291 306 332 356 10 14 33 64 82 96 87 75 66 242 226 226 225 223 226
308 282 266 256 253 254 247 241 227 218 218 220 221 220 222 236 247 244 241 244 246 244 232 225 230 234 230 222 221 228 240 245 243 244 249 254 257 258 258 255 255 256 249 247 250 248 249 247 241 233 224 226 231 233 237 234 236 243 246 252 256 259 264 266 266 270 274 279 290 304 320 308 223 144 129 129 119 108 94 88 165 212 220 220 222
333 276 253 258 257 249 249 243 231 226 219 205 183 186 209 229 243 245 238 237 237 237 233 228 231 230 223 217 214 219 233 238 238 242 245 249 254 256 258 256 254 255 253 257 260 255 255 256 255 255 240 234 240 238 240 238 235 238 240 242 246 250 255 255 254 257 259 264 269 269 261 246 232 212 193 199 205 180 148 123 181 223 220 220 222
19 21 289 302 333 246 232 214 207 207 173 108 89 98 105 158 226 244 238 237 233 231 228 229 235 233 226 228 229 226 227 233 238 240 229 210 208 236 246 245 244 248 255 264 270 263 256 252 253 255 247 244 248 247 248 247 243 241 241 244 249 256 260 257 255 254 252 251 253 256 254 246 240 236 230 231 233 230 233 235 240 243 233 225 225
11 24 38 41 56 82 97 111 117 110 107 99 97 104 104 103 87 57 232 236 233 231 225 226 235 234 230 233 234 233 231 237 242 228 211 171 146 172 194 206 224 233 244 251 254 253 251 248 243 241 244 246 245 245 251 251 246 243 243 245 250 257 261 259 259 258 254 250 249 253 255 252 249 247 245 246 247 245 247 252 251 246 242 236 232
12 31 55 59 60 77 92 100 104 104 104 98 96 94 85 70 38 34 54 83 160 218 218 222 233 232 229 230 228 226 209 203 212 198 186 123 119 144 147 131 219 241 251 250 242 238 235 229 223 224 240 246 239 239 247 254 256 255 253 253 254 258 260 259 259 261 258 252 249 251 256 257 256 254 252 252 251 249 252 257 261 260 251 244 242
7 45 77 79 60 71 83 95 107 116 108 79 37 5 346 337 351 40 72 80 85 93 120 158 207 221 231 230 218 191 156 157 161 164 162 112 107 113 102 88 92 38 300 259 242 239 238 213 205 215 236 250 253 246 245 260 273 271 269 268 263 260 262 262 262 267 266 259 253 251 251 251 256 261 260 255 253 254 257 257 263 275 269 259 255
357 48 80 76 60 54 48 50 78 119 122 26 345 326 305 294 153 121 103 93 90 89 92 92 94 101 61 214 201 180 155 154 130 98 126 118 113 113 108 104 96 77 65 62 39 295 279 266 245 249 261 269 271 263 260 266 272 276 282 282 274 268 273 273 269 271 271 265 263 259 254 251 253 259 263 265 266 269 270 266 267 278 278 272 267
354 37 64 56 39 27 22 31 65 101 106 95 86 73 69 112 127 126 117 108 98 92 94 93 89 81 70 80 112 96 78 95 95 89 98 114 123 124 114 99 96 89 81 75 63 35 344 289 266 265 270 272 270 268 269 271 274 287 300 298 290 283 288 293 283 275 269 265 270 272 267 264 258 255 261 269 272 271 272 273 273 275 278 279 275
8 24 44 41 26 28 49 68 83 96 99 96 90 82 80 87 99 106 105 102 97 93 98 100 95 89 85 82 80 70 63 72 82 91 93 97 126 141 137 117 104 98 90 84 80 72 62 49 354 272 261 269 276 276 275 275 279 291 302 305 301 282 274 286 293 291 289 285 287 287 281 278 273 266 266 268 269 270 272 273 271 270 273 275 272
38 47 57 47 35 49 74 79 83 89 92 92 90 85 83 84 89 93 90 87 88 90 93 95 94 94 95 93 88 84 73 68 69 68 71 74 107 139 153 151 126 111 102 89 82 78 76 76 75 78 113 213 232 291 294 288 285 288 292 296 295 277 260 267 286 299 315 315 305 306 297 290 290 284 275 268 266 267 269 269 268 266 268 270 269
73 94 103 88 72 75 77 73 77 80 78 80 81 83 85 87 89 90 91 90 90 92 91 90 89 88 87 86 83 80 73 70 70 71 77 86 97 121 151 161 150 133 118 100 92 89 84 79 78 83 101 134 131 81 23 327 281 267 276 282 284 284 287 295 297 306 324 324 315 323 323 312 312 307 292 280 274 272 270 269 268 266 264 264 264
102 116 123 122 116 108 96 76 74 73 73 76 77 82 83 84 87 87 90 92 92 94 94 92 91 89 85 82 78 77 73 69 66 63 66 74 87 102 137 158 156 142 127 120 117 104 93 91 89 88 94 109 124 131 133 129 208 248 267 279 287 299 314 322 318 314 314 312 308 310 312 310 311 310 303 296 293 291 286 281 277 273 270 268 265
120 133 142 144 142 136 136 128 99 89 88 87 85 87 86 85 86 87 87 88 88 89 89 88 89 87 85 82 79 78 76 71 67 65 64 66 73 82 107 156 163 149 132 123 118 111 106 107 100 90 83 80 101 262 277 273 272 273 275 282 293 303 311 314 313 309 305 305 304 302 300 297 295 294 293 291 291 290 287 285 281 277 275 273 271
151 155 160 164 162 158 159 165 153 130 113 105 98 94 94 93 93 91 89 89 90 90 90 89 89 87 84 84 83 81 78 75 72 70 68 67 69 76 84 113 156 163 151 131 113 113 117 110 91 81 62 34 325 283 284 280 279 282 285 290 295 298 300 302 304 303 302 301 299 296 291 288 285 284 284 283 283 283 283 282 279 276 272 270 269
191 180 185 190 179 174 176 182 189 175 141 123 109 101 100 100 101 101 98 96 96 96 97 96 94 91 89 87 85 82 79 77 75 73 72 70 71 76 82 87 104 149 163 152 127 107 103 91 72 43 16 350 321 300 287 280 279 282 286 290 292 293 294 295 296 296 296 295 293 290 288 285 283 282 282 281 281 282 283 283 283 282 278 274 270
203 192 191 195 186 182 180 183 194 192 168 136 118 105 100 98 101 106 105 105 103 100 101 101 98 96 92 87 81 77 75 73 73 75 75 73 74 76 80 87 95 107 130 146 135 108 91 65 45 23 3 355 348 332 311 298 293 291 291 292 292 292 292 292 292 291 290 290 287 286 284 283 282 281 280 280 280 280 282 285 287 289 288 285 279
213 205 197 200 199 200 195 194 204 197 194 176 150 124 112 104 98 105 109 111 112 108 106 106 103 101 94 87 79 72 71 67 66 69 71 71 69 68 71 77 87 96 104 116 117 107 94 52 30 14 2 357 353 342 331 326 320 313 311 309 307 305 302 300 298 295 291 288 286 284 283 281 279 277 275 274 274 275 278 280 283 285 287 287 284
210 204 202 206 206 215 217 224 245 243 247 241 226 229 209 198 240 289 317 100 113 106 106 111 110 104 95 91 88 80 77 75 72 70 68 66 61 54 51 47 49 59 70 80 89 87 66 30 4 350 347 343 335 330 327 328 327 325 325 325 321 319 315 311 307 302 298 294 290 287 285 283 282 280 279 277 276 276 276 277 279 280 282 284 283
209 204 206 207 209 219 220 229 255 272 281 279 267 259 251 254 271 294 310 312 322 349 6 17 70 84 71 60 74 82 82 84 82 80 75 68 59 49 40 31 25 21 16 17 26 30 15 351 330 326 327 322 321 322 320 320 324 326 327 325 323 320 318 315 312 308 304 300 296 292 288 287 286 284 283 281 280 279 278 278 279 279 279 280 281
218 216 218 218 220 225 224 225 239 264 286 290 289 281 266 267 293 329 332 326 324 326 329 327 325 331 349 355 352 51 78 79 76 77 72 61 49 38 27 17 9 4 357 349 342 335 327 315 303 306 308 309 313 318 322 324 324 324 322 321 321 321 320 317 313 310 307 304 300 296 293 290 288 287 286 285 284 283 282 280 279 279 279 278 277
225 228 232 234 240 244 242 240 244 253 265 275 279 276 273 284 300 316 334 332 331 328 324 322 316 313 315 316 304 278 148 74 59 55 55 48 33 19 8 360 353 347 342 339 334 327 324 319 312 308 309 311 313 314 316 318 318 318 317 317 318 318 319 318 315 312 309 306 303 300 297 295 292 291 289 288 287 286 285 284 281 280 279 278 276
235 245 248 247 251 252 250 256 265 267 263 262 265 268 274 280 279 283 290 294 303 309 310 313 312 315 319 317 309 288 260 268 299 320 333 4 12 1 352 346 340 335 334 333 332 331 330 326 322 319 317 316 316 314 312 311 310 311 312 314 316 316 316 315 312 310 307 305 303 300 298 296 294 292 291 290 289 287 287 286 284 282 280 278 276
240 249 253 250 249 249 251 260 270 273 268 266 269 271 273 272 269 273 276 277 283 285 285 288 288 291 298 302 305 299 281 273 274 282 287 289 304 324 335 338 336 336 334 331 330 331 330 328 325 323 320 318 318 318 317 316 315 312 310 310 311 312 311 310 309 309 308 305 303 301 299 297 294 293 291 290 289 288 287 286 285 283 281 279 277
242 241 244 248 250 251 253 255 260 266 267 267 272 273 271 269 270 272 272 271 273 275 276 277 276 276 277 278 281 282 280 278 274 276 279 277 280 296 314 326 330 333 331 327 327 325 324 324 322 320 319 318 319 321 321 321 319 315 311 309 308 308 310 312 313 314 312 310 306 303 301 299 297 295 293 292 290 289 288 287 286 285 283 281 279
245 240 241 247 254 258 259 258 258 260 262 267 270 270 269 270 273 276 276 274 271 269 269 270 270 271 271 271 271 269 268 267 265 266 268 270 275 281 287 297 305 309 311 316 320 320 319 318 317 316 317 316 317 317 318 318 317 315 315 315 313 312 313 315 317 317 314 312 308 304 302 299 297 295 294 291 290 289 287 286 286 285 284 282 282
249 247 249 254 257 258 260 261 258 256 260 267 269 271 273 272 271 274 276 274 270 266 264 265 268 268 267 268 269 268 266 263 260 260 260 261 266 270 273 276 281 285 290 303 312 315 317 317 315 315 315 313 312 312 314 317 319 319 320 319 318 316 314 313 314 316 316 314 310 307 305 303 299 295 293 291 289 288 286 285 285 284 282 282 282
255 255 258 261 259 258 259 260 257 257 263 268 268 273 275 269 267 270 271 270 266 262 259 258 258 258 258 260 264 266 267 266 265 264 264 263 263 265 267 268 269 271 280 299 309 317 321 321 318 316 313 310 309 310 313 316 318 319 319 319 319 319 317 314 311 313 317 315 311 308 308 308 305 300 295 293 290 287 286 286 286 285 283 283 282
259 258 260 260 258 256 256 255 253 256 260 262 263 265 264 263 265 266 266 265 263 261 260 258 256 254 252 251 254 258 261 263 265 266 266 266 265 266 267 266 265 265 276 300 314 322 324 321 318 314 310 308 308 310 313 315 315 315 316 317 319 319 319 318 316 315 317 315 312 309 309 311 309 304 300 297 294 290 289 287 286 286 285 284 283
253 250 250 250 246 241 241 243 245 248 247 244 245 249 253 260 264 264 265 266 265 265 266 264 263 261 257 253 252 253 254 258 263 266 266 265 263 261 261 262 265 266 275 299 314 320 321 319 317 312 308 308 309 311 313 314 314 314 314 316 319 319 319 319 318 318 318 316 313 310 309 311 310 306 304 303 300 297 294 290 288 287 286 285 284
237 236 235 233 226 221 223 227 233 238 236 236 242 253 265 273 274 275 276 273 272 274 273 271 270 267 266 263 260 256 254 255 259 265 266 262 257 256 259 264 271 274 281 302 316 320 321 319 316 312 310 312 313 313 314 314 315 316 316 318 319 319 319 318 317 318 318 316 315 311 309 310 310 307 306 306 304 302 300 296 293 290 287 285 284
225 227 227 227 225 221 225 236 246 253 253 254 261 271 279 286 291 293 290 286 283 282 278 278 277 274 273 273 270 265 258 253 256 263 265 259 253 255 262 269 276 281 291 307 316 319 320 318 314 312 313 315 315 314 314 315 317 318 318 318 319 318 317 316 316 317 318 317 315 312 309 309 308 306 306 306 305 303 303 302 300 296 291 287 284
216 227 234 241 247 253 261 268 271 272 271 269 269 271 276 287 297 300 299 296 293 290 285 282 279 276 273 269 266 264 258 251 253 260 261 256 254 258 265 272 280 288 298 306 310 314 316 314 311 311 313 313 313 313 314 316 316 316 316 317 317 316 315 314 314 315 315 314 313 311 309 310 309 305 304 305 303 302 303 304 304 301 295 289 284
226 238 246 253 260 264 266 268 267 267 268 269 268 268 273 286 298 306 310 309 307 305 302 296 289 282 275 268 262 258 252 247 248 252 252 252 255 260 266 275 284 292 298 304 308 311 311 309 309 310 311 310 311 312 313 314 313 314 314 314 315 314 312 312 312 312 312 311 311 310 309 309 310 307 305 304 303 302 302 304 305 303 296 288 283
238 239 242 245 249 253 254 257 259 259 261 262 263 266 272 282 295 304 311 314 315 315 314 309 300 287 276 268 260 253 251 249 243 240 243 247 253 260 268 277 284 288 294 301 306 307 306 307 307 307 307 307 308 309 309 309 310 311 311 312 312 312 310 310 311 310 310 309 310 310 308 307 309 309 307 305 304 302 302 304 304 300 293 288 284
227 226 229 229 232 241 249 255 260 262 263 265 265 267 270 275 283 293 302 308 311 313 316 316 307 291 276 269 262 257 259 251 236 233 238 245 254 264 273 279 283 287 294 302 305 305 305 305 303 302 302 303 303 304 304 305 307 307 307 308 309 308 308 308 308 308 308 308 309 310 307 305 307 308 308 307 305 303 304 304 301 296 293 290 287
229 231 232 231 236 248 256 260 264 264 264 265 266 268 269 270 274 281 290 299 304 308 314 318 318 311 303 298 297 286 260 236 230 235 243 254 264 273 280 286 291 295 300 304 304 302 300 299 298 298 299 299 299 301 302 303 304 304 305 305 306 305 306 306 306 306 305 305 309 311 307 304 306 307 308 310 308 305 305 303 300 298 298 296 293